Location: Asheville, NC
(35.6000°N, 82.5500°W)
Time: 00:05:28
(UTC-05:00)

Vanguard 2 - All Passes

Search period start: 18 December 2017 00:00
Search period end: 28 December 2017 00:00
Orbit: 553 x 2939 km, 32.9° (Epoch: 17 December)

Date Brightness Start Highest point End Pass type
(mag) Time Alt. Az. Time Alt. Az. Time Alt. Az.
18 Dec - 11:02:56 10° SSW 11:13:12 22° SSE 11:21:00 10° ESE daylight
18 Dec - 13:11:33 10° SW 13:23:40 45° SSE 13:31:11 10° E daylight
18 Dec - 15:23:27 10° WSW 15:33:14 69° S 15:39:01 10° E daylight
18 Dec - 17:35:16 10° W 17:41:52 58° SSW 17:46:16 10° ESE visible
18 Dec - 19:46:28 10° WSW 19:49:26 17° SSW 19:52:05 10° S visible
19 Dec - 11:19:14 10° SSW 11:31:25 29° SSE 11:40:08 10° E daylight
19 Dec - 13:29:21 10° SW 13:41:51 54° SSE 13:49:22 10° E daylight
19 Dec - 15:41:47 10° W 15:51:22 72° S 15:57:02 10° E daylight
19 Dec - 17:53:36 10° W 17:59:50 47° SSW 18:04:07 10° SE visible
19 Dec - 20:06:39 10° SW 20:07:10 10° SW 20:07:41 10° SSW visible
20 Dec - 09:30:49 10° S 09:38:38 15° SE 09:45:27 10° ESE daylight
20 Dec - 11:36:08 10° SW 11:49:39 37° SSE 11:58:48 10° E daylight
20 Dec - 13:47:24 10° WSW 14:00:02 63° SSE 14:07:28 10° E daylight
20 Dec - 16:00:09 10° W 16:09:29 72° S 16:15:03 10° E daylight
20 Dec - 18:12:01 10° W 18:17:44 36° SSW 18:21:48 10° SE visible
21 Dec - 09:45:38 10° S 09:56:50 22° SE 10:05:57 10° ESE daylight
21 Dec - 11:53:28 10° SW 12:07:51 46° SSE 12:17:13 10° E daylight
21 Dec - 14:05:37 10° WSW 14:18:13 70° S 14:25:33 10° E daylight
21 Dec - 16:18:32 10° W 16:27:35 67° S 16:33:02 10° ESE daylight
21 Dec - 18:30:33 10° W 18:35:31 26° SSW 18:39:14 10° SSE visible
22 Dec - 10:01:39 10° SSW 10:14:59 29° SSE 10:25:20 10° E daylight
22 Dec - 12:11:09 10° SW 12:26:03 55° SSE 12:35:29 10° E daylight
22 Dec - 14:23:58 10° WSW 14:36:25 75° S 14:43:36 10° E daylight
22 Dec - 16:36:55 10° W 16:45:38 59° SSW 16:50:56 10° ESE daylight
22 Dec - 18:49:26 10° WSW 18:53:12 17° SW 18:56:14 10° S visible
23 Dec - 08:15:00 10° SSE 08:21:58 13° SE 08:28:28 10° ESE daylight
23 Dec - 10:18:20 10° SSW 10:33:09 37° SSE 10:44:10 10° E daylight
23 Dec - 12:29:06 10° WSW 12:44:15 63° SSE 12:53:39 10° E daylight
23 Dec - 14:42:24 10° W 14:54:36 76° S 15:01:38 10° E daylight
23 Dec - 16:55:21 10° W 17:03:34 49° SSW 17:08:43 10° SE daylight
23 Dec - 19:09:36 10° SW 19:10:47 11° SW 19:11:53 10° SSW visible
24 Dec - 08:29:01 10° S 08:40:02 20° SE 08:49:51 10° ESE daylight
24 Dec - 10:35:29 10° SW 10:51:18 45° SSE 11:02:42 10° E daylight
24 Dec - 12:47:16 10° WSW 13:02:29 70° S 13:11:46 10° E daylight
24 Dec - 15:00:51 10° W 15:12:46 74° S 15:19:39 10° ESE daylight
24 Dec - 17:13:49 10° W 17:21:25 38° SSW 17:26:21 10° SE daylight
25 Dec - 08:44:39 10° SSW 08:58:04 27° SE 09:09:38 10° E daylight
25 Dec - 10:53:00 10° SW 11:09:29 54° SSE 11:21:02 10° E daylight
25 Dec - 13:05:34 10° WSW 13:20:44 75° S 13:29:51 10° E daylight
25 Dec - 15:19:18 10° W 15:30:53 69° SSW 15:37:37 10° ESE daylight
25 Dec - 17:32:27 10° W 17:39:07 28° SW 17:43:42 10° SSE daylight
26 Dec - 07:01:51 10° SE 07:05:09 11° SE 07:08:24 10° SE visible
26 Dec - 09:01:05 10° SSW 09:16:06 35° SSE 09:28:44 10° E daylight
26 Dec - 11:10:48 10° SW 11:27:42 62° SSE 11:39:17 10° E daylight
26 Dec - 13:24:00 10° W 13:38:59 78° S 13:47:55 10° E daylight
26 Dec - 15:37:46 10° W 15:48:56 60° SSW 15:55:29 10° ESE daylight
26 Dec - 17:51:26 10° W 17:56:41 19° SW 18:00:38 10° S visible
27 Dec - 07:13:33 10° S 07:23:03 17° SE 07:32:19 10° ESE visible
27 Dec - 09:18:01 10° SSW 09:34:09 43° SSE 09:47:26 10° E daylight
27 Dec - 11:28:50 10° WSW 11:45:56 69° SSE 11:57:27 10° E daylight
27 Dec - 13:42:28 10° W 13:57:14 78° S 14:05:59 10° E daylight
27 Dec - 15:56:15 10° W 16:06:51 50° SSW 16:13:14 10° SE daylight
27 Dec - 18:11:17 10° WSW 18:14:10 13° SW 18:16:37 10° SSW visible
